Wind_Speed
94 91 88 85 86 87 82 94 91 87 83 81 78 76 74 74 72 69 68 66 63 60 62 61 55 56 55 58 56 55 57 55 56 56 55 56 59 59 59 60 62 63 63 64
99 94 94 88 88 87 89 90 92 89 88 87 87 84 81 78 77 76 71 70 70 75 75 69 60 59 68 66 63 64 64 60 60 60 62 62 62 64 63 64 66 68 70 71
102 100 101 99 96 96 94 94 95 93 91 90 89 88 86 82 83 82 78 76 80 72 76 69 67 68 73 77 77 73 68 67 64 63 64 65 65 67 68 69 71 72 73 74
106 102 100 101 98 98 98 94 89 93 95 96 96 93 90 85 81 82 79 81 81 70 79 70 74 79 78 77 79 78 69 69 71 70 69 68 71 73 71 70 71 75 78 79
105 96 98 105 103 95 94 95 93 88 91 92 91 92 95 90 87 82 86 81 81 80 84 83 78 82 80 85 82 84 81 70 72 74 76 76 76 76 79 80 78 76 76 76
110 104 99 99 103 98 88 94 94 95 93 89 88 89 86 87 87 85 82 85 85 85 84 86 87 90 86 80 82 81 79 79 77 75 74 74 75 77 79 81 84 84 85 86
111 115 105 95 101 97 91 87 89 89 93 92 90 85 87 89 90 88 88 86 88 89 91 93 95 84 80 73 75 78 77 75 72 72 72 77 81 81 82 83 83 83 84 86
119 115 116 108 103 97 98 95 91 88 87 85 92 91 90 93 94 93 93 93 95 95 96 89 82 80 72 72 72 74 73 76 77 76 80 84 83 82 83 84 86 90 91 92
123 124 122 118 112 103 104 100 98 89 81 84 87 85 87 90 89 91 92 92 89 88 89 87 86 83 75 76 78 77 79 84 86 88 90 93 90 89 91 89 93 97 100 99
128 124 127 125 122 120 112 106 92 89 83 87 87 90 91 89 87 84 86 87 87 88 90 91 92 87 86 87 88 87 85 84 90 92 93 94 90 94 98 99 99 101 108 111
129 130 126 128 127 124 120 116 110 103 97 95 91 94 88 89 89 92 93 95 94 94 96 97 93 91 91 92 94 94 94 94 97 94 102 102 101 100 101 104 107 112 116 115
127 128 130 131 130 127 126 124 123 118 114 107 104 93 88 90 90 96 98 102 102 102 101 99 98 92 90 95 99 101 101 103 102 104 108 110 114 110 113 115 118 119 122 115
131 130 129 130 132 131 129 127 126 126 123 117 108 103 99 98 99 93 97 96 98 101 99 99 97 97 99 103 105 105 109 109 110 112 112 110 112 117 116 117 121 123 124 127
133 132 131 130 129 128 127 129 129 129 127 121 117 116 115 116 111 109 110 110 109 101 102 102 105 107 107 110 114 115 118 118 121 123 126 125 124 125 126 129 127 128 132 135
129 131 133 132 128 127 128 125 123 122 122 121 120 119 119 116 118 116 118 119 116 117 114 113 117 115 116 118 120 123 125 128 130 131 130 132 132 134 135 136 137 137 140 142
126 126 126 129 132 130 127 124 122 122 120 118 120 118 120 120 117 117 117 124 123 122 121 122 124 126 128 129 130 131 133 134 136 137 138 140 143 145 144 144 145 144 143 140
118 121 124 125 125 129 130 128 125 124 123 123 121 121 123 121 120 119 116 123 126 128 132 131 132 134 134 134 134 135 136 136 137 138 140 142 143 144 145 143 142 139 135 133
121 122 120 122 122 121 120 125 129 129 127 125 124 124 124 126 127 124 122 126 130 131 131 130 129 130 131 132 133 135 137 139 140 142 143 142 142 142 142 138 136 138 139 140
120 121 119 118 117 115 116 118 119 120 123 127 127 127 126 127 127 124 126 127 128 129 130 131 131 131 130 131 133 136 137 138 138 139 138 136 135 136 139 141 143 144 144 145
106 112 115 114 113 111 110 113 115 116 115 121 122 121 121 121 121 122 125 126 126 125 125 126 127 128 128 129 131 133 133 133 133 135 137 139 141 143 144 145 146 147 149 148
91 95 104 111 110 109 110 113 115 115 118 117 117 117 117 116 116 116 117 119 120 122 123 124 124 125 125 128 129 131 133 135 138 140 142 144 145 146 146 145 145 145 145 145
83 82 83 87 93 101 111 114 115 116 117 117 119 120 120 120 120 119 119 119 119 120 122 124 126 127 129 131 133 135 136 137 138 139 138 136 136 136 138 139 141 141 140 138
83 82 79 77 77 79 84 90 97 105 111 116 118 119 119 117 117 118 119 120 121 121 122 124 126 126 125 125 125 125 124 125 127 130 132 132 133 134 133 132 130 129 128 127
73 76 80 79 83 78 76 77 81 83 86 89 92 95 98 100 102 105 105 106 107 108 109 110 112 113 114 116 118 120 122 123 123 121 119 118 119 120 120 120 119 118 117 117
54 57 61 65 67 69 73 76 79 83 85 87 87 88 89 91 93 96 98 99 100 100 100 100 100 100 100 101 101 101 101 100 99 100 103 106 107 107 108 110 112 113 114 114
36 40 44 47 49 52 54 57 60 63 66 70 72 73 73 72 72 71 72 74 75 77 78 80 81 80 79 80 82 83 87 88 91 95 96 98 100 102 103 103 103 104 101 102
Wind_Direction
212 212 214 216 219 223 225 228 231 234 237 240 246 248 250 254 254 253 254 258 263 267 269 271 271 277 277 281 283 280 274 273 273 273 273 274 273 271 271 272 274 273 272 274
215 213 215 216 217 223 227 230 232 234 237 240 242 245 247 249 254 253 255 261 264 267 270 269 264 277 278 279 284 284 279 277 275 274 275 274 274 274 273 274 273 272 274 275
217 218 219 221 222 223 229 230 233 236 237 239 242 245 245 249 251 254 254 260 262 266 268 263 266 274 279 276 276 282 281 278 278 274 273 275 275 275 274 273 274 276 278 277
215 218 222 222 224 229 232 234 236 239 242 243 245 246 250 248 253 258 257 259 258 263 263 263 269 273 276 279 278 282 280 280 277 276 275 275 276 275 275 276 276 277 279 280
215 218 222 223 225 229 232 234 237 239 241 245 245 245 249 249 250 252 255 257 259 261 262 264 270 271 277 277 276 278 278 276 277 274 274 274 274 275 275 274 272 274 275 276
218 217 221 223 225 226 231 235 239 240 242 243 243 245 246 247 250 249 254 259 260 260 262 265 268 276 280 277 275 275 274 274 273 270 273 274 273 274 275 275 275 275 275 275
219 219 221 222 227 227 229 234 239 241 242 242 241 242 242 246 249 251 255 257 257 257 261 267 274 276 277 276 275 277 277 272 269 272 276 279 277 278 276 277 277 277 280 280
220 221 224 225 226 227 232 233 236 239 240 241 241 245 246 249 250 251 255 259 261 265 268 272 275 277 273 279 278 280 276 270 272 277 278 282 282 278 277 278 280 280 282 283
223 221 224 226 227 230 233 235 237 238 238 243 245 246 250 252 252 255 258 261 264 269 273 276 277 277 272 278 279 278 275 273 273 275 277 281 283 277 277 278 281 283 283 282
223 224 225 226 228 231 233 235 236 238 242 248 252 253 255 255 257 257 258 263 263 266 271 272 275 275 276 276 280 280 278 275 272 273 279 283 284 281 278 278 283 285 286 281
225 225 226 229 231 233 234 237 235 238 240 245 247 252 254 256 257 258 259 263 265 266 270 271 273 275 276 276 279 281 281 281 282 281 282 284 284 284 282 282 283 285 286 286
222 227 228 230 232 233 235 237 238 239 242 245 246 248 248 254 252 258 261 263 266 268 270 269 273 273 274 275 278 277 279 281 280 279 281 282 284 284 284 284 284 286 283 282
225 225 228 231 233 235 236 237 238 241 243 246 246 246 247 249 251 253 253 260 263 268 267 268 270 269 267 269 273 275 277 279 279 280 282 282 278 281 281 281 282 281 280 280
226 226 227 231 232 235 238 239 240 241 244 246 249 250 251 254 256 255 255 259 264 264 265 267 268 270 269 269 270 273 276 275 278 280 279 281 282 284 284 284 285 284 283 285
228 229 229 230 233 236 238 241 243 246 246 247 249 252 255 255 255 257 257 258 262 260 265 266 268 269 269 271 272 273 277 279 280 281 282 284 284 285 286 286 287 287 287 288
229 231 233 233 234 235 238 242 245 246 247 249 250 252 254 257 258 259 260 257 261 262 263 266 266 269 273 275 275 276 277 279 280 282 283 283 283 284 285 287 288 289 290 289
232 233 235 236 237 237 238 240 244 247 250 250 251 253 256 257 259 261 261 258 261 264 265 268 270 273 274 275 276 277 278 280 281 282 283 283 284 285 286 287 287 288 289 288
233 236 237 238 240 241 242 243 244 246 249 252 254 255 256 258 261 263 263 261 262 265 269 271 273 274 275 277 278 279 280 281 282 283 284 285 285 285 286 287 288 288 288 288
236 237 238 240 243 244 245 246 248 249 251 253 253 255 257 259 261 263 265 266 267 269 271 273 275 276 277 278 279 280 281 282 283 284 285 286 286 286 286 286 287 288 289 290
238 238 240 243 244 246 248 251 252 253 254 256 256 258 259 261 262 263 265 267 269 271 272 273 274 276 277 278 279 280 282 283 284 284 285 286 287 287 288 288 288 288 289 290
240 242 243 244 245 247 248 250 252 254 255 258 260 261 262 264 265 266 267 268 270 271 273 274 276 277 278 279 280 281 282 283 284 286 287 288 287 287 288 289 289 289 289 289
243 245 246 247 247 248 249 251 252 254 255 257 259 261 264 265 266 268 269 271 272 273 275 276 277 278 280 281 281 282 283 284 284 285 286 287 288 287 288 288 288 289 288 288
244 246 248 249 249 249 251 254 256 258 259 259 261 262 265 267 268 269 270 271 273 274 275 276 278 279 280 281 281 283 284 284 284 285 287 287 286 286 287 287 288 289 289 289
244 244 246 248 250 251 254 256 258 260 262 263 264 265 266 267 269 270 272 273 274 275 275 276 277 279 280 281 281 281 281 281 283 285 286 285 285 287 288 289 289 289 289 289
243 246 248 250 252 254 256 258 259 261 264 266 268 269 270 271 272 273 273 274 274 275 275 276 277 278 279 279 280 281 282 283 284 284 284 285 287 288 290 290 290 291 291 291
240 244 247 249 252 254 256 258 260 262 265 267 269 271 272 273 273 273 273 273 273 273 274 275 277 278 279 279 280 281 281 282 284 286 289 290 290 292 294 294 296 296 295 296
Height
10647 10659 10667 10673 10682 10689 10693 10705 10711 10725 10731 10738 10744 10752 10761 10765 10772 10779 10782 10787 10790 10788 10791 10797 10801 10801 10801 10800 10804 10804 10803 10803 10803 10802 10800 10800 10799 10796 10795 10793 10791 10789 10786 10784
10637 10648 10651 10663 10672 10676 10682 10693 10703 10718 10720 10726 10735 10743 10750 10759 10760 10767 10774 10778 10779 10779 10784 10786 10791 10789 10790 10791 10792 10792 10792 10793 10792 10791 10789 10789 10787 10785 10784 10782 10778 10775 10773 10771
10621 10630 10641 10651 10659 10667 10669 10681 10690 10701 10711 10717 10723 10732 10740 10750 10751 10758 10764 10767 10768 10769 10772 10774 10775 10777 10781 10782 10780 10783 10781 10779 10779 10780 10777 10777 10774 10771 10769 10769 10764 10760 10758 10756
10600 10616 10629 10640 10648 10655 10662 10667 10677 10688 10696 10703 10713 10725 10729 10737 10745 10749 10750 10751 10757 10762 10757 10761 10762 10766 10767 10768 10767 10767 10768 10767 10765 10765 10764 10764 10761 10758 10755 10752 10750 10746 10743 10741
10599 10607 10616 10626 10635 10642 10652 10657 10664 10673 10681 10693 10703 10712 10715 10724 10734 10734 10734 10742 10743 10745 10746 10748 10748 10750 10752 10753 10754 10753 10753 10753 10752 10751 10749 10747 10744 10742 10739 10737 10733 10730 10727 10723
10584 10591 10598 10611 10618 10630 10639 10644 10651 10660 10668 10682 10690 10697 10708 10710 10716 10723 10725 10725 10728 10730 10733 10734 10736 10736 10738 10738 10737 10737 10736 10735 10736 10734 10731 10730 10728 10726 10723 10720 10718 10714 10711 10708
10576 10582 10590 10598 10605 10618 10626 10632 10639 10647 10659 10673 10674 10684 10694 10694 10702 10709 10708 10710 10711 10715 10717 10720 10724 10724 10725 10723 10722 10720 10717 10717 10716 10714 10713 10712 10711 10709 10706 10704 10700 10696 10693 10689
10553 10570 10578 10587 10594 10606 10609 10615 10622 10630 10643 10652 10659 10672 10683 10682 10687 10693 10694 10696 10696 10699 10702 10706 10708 10710 10709 10708 10707 10704 10701 10700 10699 10697 10695 10693 10691 10690 10687 10683 10679 10676 10672 10668
10537 10552 10559 10565 10578 10586 10594 10602 10616 10622 10629 10638 10647 10656 10664 10667 10673 10675 10678 10681 10680 10681 10685 10689 10691 10693 10693 10692 10690 10688 10687 10685 10681 10678 10676 10674 10672 10669 10666 10662 10658 10654 10650 10645
10519 10536 10541 10552 10561 10571 10583 10590 10598 10607 10615 10626 10636 10642 10645 10650 10652 10659 10658 10660 10665 10667 10668 10670 10674 10675 10676 10674 10670 10668 10665 10664 10663 10660 10658 10654 10652 10649 10644 10639 10635 10631 10626 10621
10505 10518 10530 10535 10548 10560 10571 10579 10589 10597 10603 10614 10620 10626 10634 10637 10638 10642 10641 10640 10643 10648 10652 10657 10658 10661 10659 10652 10647 10645 10643 10643 10641 10639 10635 10632 10628 10626 10622 10617 10611 10606 10600 10595
10492 10502 10513 10522 10533 10544 10551 10563 10571 10582 10592 10602 10608 10616 10618 10618 10622 10624 10622 10620 10625 10630 10636 10639 10641 10641 10638 10629 10627 10624 10621 10621 10618 10615 10611 10608 10604 10598 10595 10591 10585 10580 10576 10566
10472 10485 10495 10501 10508 10525 10538 10549 10556 10562 10572 10586 10593 10605 10599 10604 10606 10607 10599 10601 10604 10611 10617 10617 10619 10616 10614 10611 10607 10607 10604 10599 10597 10592 10586 10581 10576 10571 10566 10562 10557 10552 10547 10540
10451 10464 10478 10487 10499 10508 10518 10526 10536 10548 10561 10573 10577 10578 10584 10587 10587 10588 10586 10586 10589 10594 10594 10598 10595 10592 10597 10595 10587 10585 10580 10578 10574 10568 10563 10556 10550 10544 10539 10534 10529 10521 10515 10508
10432 10447 10460 10471 10482 10492 10501 10510 10522 10538 10545 10555 10559 10559 10559 10564 10565 10565 10570 10572 10576 10575 10573 10576 10572 10572 10573 10571 10568 10563 10556 10552 10545 10537 10532 10525 10517 10513 10508 10502 10494 10486 10479 10471
10421 10433 10445 10456 10468 10482 10489 10498 10509 10518 10527 10534 10536 10542 10536 10540 10550 10552 10554 10554 10555 10551 10552 10553 10551 10549 10548 10545 10541 10535 10530 10523 10516 10510 10503 10494 10489 10483 10475 10467 10459 10452 10443 10433
10410 10421 10431 10443 10453 10464 10478 10488 10493 10498 10507 10511 10521 10520 10517 10522 10524 10528 10537 10535 10532 10534 10533 10529 10530 10526 10521 10516 10510 10504 10498 10493 10486 10479 10469 10464 10457 10449 10442 10433 10424 10416 10407 10399
10393 10401 10416 10424 10438 10453 10465 10470 10476 10483 10487 10490 10499 10500 10499 10497 10502 10512 10515 10511 10512 10509 10509 10506 10505 10501 10494 10488 10482 10475 10469 10462 10455 10447 10438 10430 10423 10414 10406 10397 10389 10379 10372 10363
10378 10390 10401 10413 10425 10441 10449 10454 10457 10467 10472 10470 10480 10476 10476 10478 10484 10492 10484 10486 10489 10486 10483 10478 10474 10472 10468 10461 10453 10445 10438 10431 10422 10414 10405 10396 10388 10379 10369 10360 10351 10341 10333 10322
10365 10378 10389 10401 10412 10428 10436 10439 10439 10443 10456 10442 10445 10451 10455 10458 10465 10469 10462 10460 10458 10458 10455 10450 10446 10443 10440 10433 10425 10416 10407 10398 10389 10381 10372 10362 10352 10344 10336 10325 10314 10304 10294 10286
10352 10362 10375 10385 10400 10414 10417 10412 10414 10424 10423 10425 10425 10430 10432 10434 10437 10440 10440 10438 10436 10432 10426 10423 10420 10415 10410 10401 10393 10385 10377 10367 10358 10349 10339 10329 10318 10308 10299 10290 10279 10268 10258 10247
10338 10348 10359 10368 10380 10391 10387 10391 10393 10397 10403 10408 10407 10405 10407 10410 10413 10415 10416 10414 10411 10409 10403 10397 10390 10384 10380 10372 10364 10355 10346 10336 10327 10318 10309 10298 10286 10276 10266 10255 10243 10232 10221 10211
10321 10331 10342 10351 10359 10365 10367 10370 10374 10376 10380 10383 10385 10384 10386 10389 10389 10390 10391 10389 10387 10382 10377 10370 10364 10355 10350 10341 10333 10324 10315 10305 10295 10286 10276 10264 10251 10240 10228 10218 10206 10195 10184 10176
10309 10318 10325 10334 10334 10346 10354 10355 10353 10354 10357 10360 10363 10364 10364 10364 10362 10361 10360 10359 10356 10352 10349 10343 10336 10329 10322 10315 10306 10297 10287 10277 10268 10257 10245 10232 10220 10209 10197 10185 10175 10165 10154 10144
10299 10306 10312 10318 10325 10332 10335 10338 10340 10339 10339 10340 10341 10343 10343 10342 10340 10338 10336 10334 10331 10327 10321 10314 10307 10300 10293 10286 10278 10269 10261 10252 10240 10227 10215 10204 10194 10183 10171 10158 10147 10135 10122 10113
10292 10297 10302 10308 10313 10317 10320 10322 10324 10324 10325 10324 10325 10324 10323 10320 10317 10315 10311 10308 10305 10301 10296 10291 10286 10280 10273 10264 10256 10247 10237 10228 10217 10207 10197 10185 10172 10159 10147 10135 10120 10102 10094 10082